sat.trackr.live / text

‹ back to catalog

ONEWEB-0059

NORAD 45162 · 2020-008AH

PAYLOAD ACTIVE UNKNOWN

§ Identity

Operator
Country
UK
Launch date
2020-02-06
Launch site
TYMSC
Launch vehicle
Mass (kg)
RCS (m²)

Purposes: comms

External: N2YO · Heavens-Above · Gunter

§ Orbital elements

Epoch: 2026-09-20T01:01:47.215776Z

Period
109.89 min
Inclination
87.8910°
Eccentricity
0.0002136
Mean motion
13.10372422 rev/d
Perigee alt
1,220.1 km
Apogee alt
1,223.3 km
Semi-major
7,599.9 km
B*
-1.7870e-3
RAAN
17.3927°
Arg perigee
105.1231°
Mean anomaly
255.0132°
Rev number
32,074

§ Raw data

ONEWEB-00591 45162U 20008AH  26263.04290759 -.00000611  00000+0 -17870-2 0  99972 45162  87.8910  17.3927 0002136 105.1231 255.0132 13.10372422320746

JSON: /api/v1/satellites/45162 · /tle

For live sub-satellite position, see the globe view (requires WebGL).

§ Visibility from observer

Set your observer location to see the next 7 days of passes ≥ 10°. The values pass through the URL so the page stays shareable.

No JS? Fill the form by hand. The geolocation button needs JavaScript.